SCP
0 0 0 0 0 0 0 0 0 0 0 0 0 0 0 0 0 0 0 0 0 0 0 0 0 0 0 0 0 0 0 0 0 0 0 0 0 0 0 0 0 0 0
0 0 0 0 0 0 0 0 0 0 0 0 0 0 0 0 0 0 0 0 0 0 0 0 0 0 0 0 0 0 0 0 0 0 0 0 0 0 0 0 0 0 1
0 0 0 0 0 0 0 0 0 0 0 0 0 0 0 0 0 0 0 0 0 0 0 0 0 0 0 0 0 0 0 0 0 0 0 0 0 0 0 0 0 0 0
0 0 0 0 0 0 0 0 0 0 0 0 0 0 0 0 0 0 0 0 0 0 0 0 0 0 0 0 0 0 0 0 0 0 0 0 0 0 0 0 0 0 0
0 0 0 0 0 0 0 0 0 0 0 0 0 0 0 0 0 0 0 0 0 0 0 0 0 0 0 0 0 0 0 0 0 0 0 0 0 0 0 0 0 0 0
0 0 0 0 0 0 0 0 0 0 0 0 0 0 0 0 0 0 0 0 0 0 0 0 0 0 0 0 0 0 0 0 0 0 0 0 0 0 0 0 0 0 0
0 0 0 0 0 0 0 0 0 0 0 0 0 0 0 0 0 0 0 0 0 0 0 0 0 0 0 0 0 0 0 0 0 0 0 0 0 0 0 0 0 0 0
0 0 0 0 0 0 0 0 0 0 0 0 0 0 0 0 0 0 0 0 0 0 0 0 0 0 0 0 0 0 0 0 0 0 0 0 0 0 0 0 0 0 0
0 0 0 0 0 0 0 0 0 0 0 0 0 0 0 0 0 0 0 0 0 0 0 0 0 0 0 0 0 0 0 0 0 0 0 0 0 0 0 0 0 0 0
0 0 0 0 0 0 0 0 0 0 0 0 0 0 0 0 0 0 0 0 0 0 0 0 0 0 0 0 0 0 0 0 0 0 0 0 0 0 0 0 0 0 0
0 0 0 0 0 0 0 0 0 0 0 0 0 0 0 0 0 0 0 0 0 0 0 0 0 0 0 0 0 0 0 0 0 0 0 0 0 0 0 0 0 0 0
0 0 0 0 0 0 0 0 0 0 0 0 0 0 0 0 0 0 0 0 0 0 0 0 0 0 0 0 0 0 0 0 0 0 0 0 0 0 0 0 0 0 0
0 0 0 0 0 0 0 0 0 0 0 0 0 0 0 0 0 0 0 0 0 0 0 0 0 0 0 0 0 0 0 0 0 0 0 0 0 0 0 0 0 0 0
0 0 0 0 0 0 0 0 0 0 0 0 0 0 0 0 0 0 0 0 0 0 0 0 0 0 0 0 0 0 0 0 0 0 0 0 0 0 0 0 0 0 0
0 0 0 0 0 0 0 0 0 0 0 0 0 0 0 0 0 0 0 0 0 0 0 0 0 0 0 0 0 0 0 0 0 0 0 0 0 0 0 0 0 0 0
0 0 0 0 0 0 0 0 0 0 0 0 0 0 0 0 0 0 0 0 0 0 0 0 0 0 0 0 0 0 0 0 0 0 0 0 0 0 0 0 0 0 0
0 0 0 0 0 0 0 0 0 0 0 0 0 0 0 0 0 0 0 0 0 0 0 0 0 0 0 0 0 0 0 0 0 0 0 0 0 0 0 0 0 0 0
0 0 0 0 0 0 0 0 0 0 0 0 0 0 0 0 0 0 0 0 0 0 0 0 0 0 0 0 0 0 0 0 0 0 0 0 0 0 0 0 0 0 0
0 0 0 0 0 0 0 0 0 0 0 0 0 0 0 0 0 0 0 0 0 0 0 0 0 0 0 0 0 0 0 0 0 0 0 0 0 0 0 0 0 0 0
0 0 0 0 0 0 0 0 0 0 0 0 0 0 0 0 0 0 0 0 0 0 0 0 0 0 0 0 0 0 0 0 0 0 0 0 0 0 0 0 0 0 0
0 0 0 0 0 0 0 0 0 0 0 0 0 0 0 0 0 0 0 0 0 0 0 0 0 0 0 0 0 0 0 0 0 0 0 0 0 0 0 0 0 0 0
0 0 0 0 0 0 0 0 0 0 0 0 0 0 0 0 0 0 0 0 0 0 0 0 0 0 0 0 0 0 0 0 0 0 0 0 0 0 0 0 0 0 0
0 0 0 0 0 0 0 0 0 0 0 0 0 0 0 0 0 0 0 0 0 0 0 0 0 0 0 0 0 0 0 0 0 0 0 0 0 0 0 0 0 0 0
0 0 0 0 0 0 0 0 0 0 0 0 0 0 0 0 0 0 0 0 0 0 0 0 0 0 0 0 0 0 0 0 0 0 0 0 0 0 0 0 0 0 0
0 0 0 0 0 0 0 0 0 0 0 0 0 0 0 0 0 0 0 0 0 0 0 0 0 0 0 0 0 0 0 0 0 0 0 0 0 0 0 0 0 0 0
0 0 0 0 0 0 0 0 0 0 0 0 0 0 0 0 0 0 0 0 0 0 0 0 0 0 0 0 0 0 0 0 0 0 0 0 0 0 0 0 0 0 0
Wind_Speed
5 5 4 4 3 2 2 2 2 2 1 1 1 1 1 1 1 1 1 0 0 0 0 1 1 1 1 1 1 1 1 2 2 1 0 0 0 1 1 1 1 1 1
5 5 5 4 3 3 3 3 2 2 2 1 1 1 1 1 1 0 1 0 0 1 1 1 1 1 1 1 1 1 1 2 2 2 0 0 0 0 1 1 1 1 1
5 5 4 4 4 4 4 3 2 2 2 1 0 1 1 1 1 1 1 1 0 0 1 1 1 1 1 1 1 1 1 1 2 2 1 0 0 0 1 1 1 1 1
5 5 6 6 5 5 4 3 3 2 2 2 1 1 2 2 1 1 0 1 1 1 1 0 1 1 2 2 1 1 2 2 2 2 1 0 0 0 1 1 1 1 1
6 6 7 6 5 4 4 3 3 2 3 2 1 1 2 1 2 1 1 0 0 1 1 1 1 1 2 2 2 2 3 2 2 2 1 0 0 0 0 0 0 1 1
7 7 6 5 4 4 4 4 3 3 2 2 2 2 2 2 2 3 2 1 1 0 1 1 1 1 1 1 2 3 4 4 3 2 1 1 1 1 1 1 1 1 1
7 6 5 5 5 5 5 4 4 4 3 3 3 2 3 3 3 3 3 2 1 1 1 0 1 1 1 1 1 1 1 2 4 4 3 3 2 2 2 1 1 1 1
6 6 6 6 6 5 4 5 5 4 3 3 3 3 3 4 4 3 3 2 1 1 1 1 1 1 0 1 2 1 1 1 1 2 3 3 2 3 3 3 2 1 0
6 6 7 7 6 5 6 6 5 4 4 4 3 4 4 4 4 4 4 2 1 1 1 1 1 1 2 2 3 2 0 1 1 2 2 1 1 2 3 2 2 1 0
7 7 6 6 7 7 7 6 4 4 5 4 4 4 4 4 4 5 5 2 2 1 1 1 1 1 1 2 2 2 1 2 0 1 1 1 1 1 2 2 2 2 1
5 4 4 6 7 7 6 4 4 4 4 4 4 4 4 5 5 6 6 4 3 2 1 1 1 1 1 2 3 2 3 2 1 2 2 2 2 2 1 1 1 2 2
3 3 4 5 5 5 5 4 4 5 5 4 4 3 3 3 5 5 7 7 6 4 3 2 1 2 2 2 2 2 2 3 2 2 2 1 1 1 1 1 2 2 2
2 4 4 4 4 4 5 5 4 4 4 4 4 4 4 3 4 6 7 8 8 5 3 4 3 3 3 2 2 3 3 2 2 2 1 0 0 0 1 1 2 3 4
3 4 3 3 3 3 3 4 5 5 5 5 5 5 4 3 3 3 4 4 6 5 3 3 4 3 3 3 3 2 1 2 2 2 1 0 1 1 1 1 1 1 2
4 4 3 3 4 4 4 4 5 6 7 7 6 6 6 6 7 9 7 5 5 5 4 2 2 2 2 1 1 1 1 2 2 1 1 1 1 1 1 1 2 2 2
4 4 3 3 3 3 3 2 4 4 7 9 9 7 6 8 8 9 11 11 11 11 6 3 3 3 3 3 3 2 1 1 1 1 2 2 2 2 2 1 2 2 2
5 5 4 4 4 4 4 4 3 2 3 6 8 9 8 8 9 9 10 10 10 11 5 4 4 4 4 4 3 3 2 2 2 2 2 2 2 2 2 2 2 2 2
5 6 5 4 5 5 5 5 5 4 3 3 4 8 8 8 9 9 10 8 5 5 4 5 5 5 4 4 4 3 3 2 2 2 2 2 2 2 2 2 2 2 2
5 4 4 4 4 5 5 5 5 5 5 3 2 3 6 7 7 8 9 5 6 6 5 5 5 5 5 5 4 4 4 3 3 3 2 3 2 2 2 2 2 2 2
5 8 6 4 4 4 5 5 5 5 5 5 5 4 4 3 3 5 5 5 5 5 5 5 5 5 5 5 5 5 4 4 4 3 3 3 3 3 3 3 2 2 1
5 6 7 5 5 5 5 6 6 6 6 6 6 6 8 6 6 6 6 6 6 6 6 6 5 5 5 5 5 6 6 5 4 4 4 3 3 3 2 2 2 2 2
5 5 5 5 5 5 5 5 6 6 7 7 4 5 10 5 5 5 5 6 6 5 5 6 5 5 6 6 6 6 6 6 5 5 4 4 3 3 3 2 2 2 2
5 5 5 5 5 6 5 5 5 6 6 6 6 5 6 5 5 6 6 5 5 5 5 5 5 5 4 5 5 6 7 7 6 6 6 5 4 3 3 3 3 2 2
5 6 6 5 5 5 5 6 6 6 6 6 6 7 7 6 6 6 6 5 5 5 5 5 6 8 8 6 5 4 4 5 6 6 7 6 5 4 3 3 3 3 2
5 5 6 5 5 5 6 6 6 6 6 7 7 7 6 6 6 6 5 5 6 6 6 6 5 7 9 9 8 6 8 10 8 6 5 5 6 5 4 4 3 2 2
6 6 5 5 5 5 6 6 6 6 6 6 6 7 7 7 6 6 6 6 6 6 6 6 7 8 9 8 9 10 11 11 10 9 6 5 5 5 4 3 3 3 3
Wind_Direction
203 204 207 214 213 208 216 238 248 265 285 296 305 321 328 333 353 16 345 38 78 341 166 176 205 172 151 161 154 154 165 158 173 266 311 333 30 40 25 36 56 114 150
203 200 207 209 200 207 227 241 238 246 262 271 292 318 318 330 344 324 316 351 208 270 269 189 219 169 161 166 155 166 170 171 163 174 314 3 29 162 80 56 35 75 112
194 198 206 208 205 215 229 233 227 231 251 268 248 272 296 299 292 275 271 288 279 268 276 223 226 162 174 187 173 169 170 154 147 153 177 48 360 34 74 59 51 28 28
190 195 205 212 212 217 224 223 222 220 225 239 235 246 271 279 269 260 259 294 302 316 318 274 224 187 199 193 180 177 154 132 132 140 152 160 111 359 91 82 34 17 7
190 201 214 216 212 211 217 220 218 216 221 225 228 263 284 273 256 227 213 209 251 340 347 329 288 208 201 193 180 174 155 142 138 140 152 137 172 134 150 140 103 360 350
196 211 213 207 206 210 215 213 211 217 222 210 220 238 263 270 270 207 180 170 165 185 324 326 320 335 289 226 180 166 165 163 167 165 175 178 216 201 188 170 148 84 327
203 211 206 202 207 214 212 204 210 215 212 214 225 227 246 265 259 215 188 164 168 192 225 307 339 353 19 82 71 88 143 184 181 172 174 199 202 200 175 173 178 181 216
209 213 208 202 210 211 205 211 215 208 207 214 222 223 236 257 242 208 175 152 148 175 208 215 222 296 301 133 120 90 55 339 212 178 180 203 203 194 185 184 178 158 73
215 219 213 204 207 205 210 217 213 202 208 210 212 214 223 251 234 202 172 147 153 213 250 230 210 234 263 148 129 131 36 322 317 161 172 178 178 161 151 127 129 127 27
226 225 214 203 203 209 215 215 207 201 209 206 214 215 215 231 231 209 177 158 171 208 256 281 240 210 232 166 154 155 184 264 255 84 63 31 45 72 117 148 163 158 161
233 222 211 207 210 212 210 206 199 198 200 204 214 222 219 226 230 215 188 172 182 185 198 233 253 210 170 158 157 170 200 192 146 123 97 71 63 57 50 72 134 161 168
224 217 216 214 216 209 200 202 194 191 196 207 213 228 229 227 222 220 205 192 179 174 192 205 207 157 140 133 146 169 157 133 111 103 94 78 68 47 35 58 91 94 100
230 229 225 214 211 199 194 197 193 191 199 209 207 220 232 227 223 216 205 192 181 176 185 175 165 149 131 113 94 114 119 115 119 118 128 166 196 149 85 78 64 78 70
237 242 230 213 213 207 201 198 198 201 205 209 211 217 222 221 217 207 197 189 180 176 172 154 141 125 113 101 84 76 94 124 136 144 146 125 86 83 73 80 87 77 75
243 241 232 220 213 212 212 211 210 215 208 207 215 208 203 219 222 201 186 188 185 179 151 125 120 124 127 112 90 80 84 99 112 123 128 117 101 92 75 69 88 88 97
250 245 233 222 217 211 210 242 245 233 230 220 214 208 219 218 208 198 195 192 184 168 148 157 175 176 178 179 169 156 138 142 151 145 137 137 136 130 112 86 89 105 110
246 244 237 226 219 212 208 210 231 271 251 229 220 214 215 209 203 197 190 185 179 165 163 179 185 189 188 183 179 174 178 182 165 149 147 150 144 134 123 114 109 103 102
259 248 240 229 223 218 214 215 212 209 224 251 235 217 210 207 200 190 175 156 167 176 184 188 192 190 187 186 185 181 173 159 150 151 149 148 144 137 133 135 137 138 135
268 259 245 235 227 224 219 215 215 214 215 220 230 222 205 195 188 183 167 170 182 191 195 195 191 188 186 184 181 176 172 170 164 158 159 156 153 144 144 147 145 140 131
269 270 263 242 229 223 218 215 215 213 212 211 212 209 182 169 185 190 190 190 190 193 192 192 192 188 183 179 174 170 167 168 165 162 165 163 159 156 158 159 158 157 166
273 272 268 256 233 223 218 218 217 213 213 215 217 208 192 195 199 198 196 196 197 196 192 189 186 184 180 175 173 172 172 175 175 171 168 166 161 158 159 159 161 157 154
268 265 259 252 241 229 222 219 217 216 214 213 215 208 198 199 201 200 201 203 201 195 187 180 182 184 181 177 175 174 175 175 176 172 168 165 161 158 154 156 160 162 163
268 266 263 258 247 237 229 224 221 220 217 210 203 199 199 204 206 204 203 200 191 184 177 174 175 177 176 175 176 174 177 181 179 173 167 164 163 163 161 166 170 170 181
266 261 259 257 249 237 229 228 225 223 218 210 204 203 203 204 204 204 199 189 183 179 177 177 179 178 175 171 169 171 172 167 162 166 165 164 165 165 165 168 175 181 186
261 259 256 252 247 242 236 232 228 225 220 212 206 203 202 201 200 197 191 182 177 178 178 176 174 174 174 172 168 167 164 160 159 158 159 160 163 166 168 173 178 180 187
258 257 257 253 248 243 236 232 229 226 220 215 209 204 199 197 195 191 185 179 176 176 175 174 175 173 172 173 171 167 163 161 160 158 155 157 162 168 168 174 181 185 185